Tracking 26544 objects as of 9-Dec-2022
HD Live streaming from Space Station
objects crossing your sky now

ATLAS 5 CENTAUR DEB

Track ATLAS 5 CENTAUR DEB now!


NORAD ID: 44692
Int'l Code: 2018-079BE
Perigee: 9,379.3 km
Apogee: 36,817.0 km
Inclination: 10.5 °
Period: 839.1 minutes
Semi major axis: 29469 km
RCS: Unknown
Launch date: October 17, 2018
Source: United States (US)
Launch site: AIR FORCE EASTERN TEST RANGE (AFETR)

Note: This is SATELLITE DEBRIS
aabbcc
Your satellite tracking list
Your tracking list is empty




NASA's NSSDC Master Catalog

Two Line Element Set (TLE):
1 44692U 18079BE  22342.79805765 -.00000062  00000-0  00000+0 0  9998
2 44692  10.5075 186.3421 4655335  39.9650 346.5874  1.71613410 21287
Source of the keplerian elements: AFSPC